,,PA_Meas_PMT16A,,PR_Meas_QMR101_102,,RH_Meas_QMH101,,SR_Meas_QMS101,,TA_Meas_QMH101,,GenWind,,GenWind,
time,status,PA,status,PR,status,RH,status,SR,status,TA,status,DirAvg,status,SpdAvg,
2010-03-07, 00:00:04,VALID,920.331,VALID,0,VALID,97.5264,VALID,0,VALID,20.3854,VALID,161,VALID,0.590625,
2010-03-07, 00:01:04,VALID,920.346,VALID,0,VALID,97.5035,VALID,0,VALID,20.4049,VALID,161,VALID,0.388281,
2010-03-07, 00:02:04,VALID,920.346,VALID,0,VALID,97.5111,VALID,0,VALID,20.3854,VALID,161,VALID,0.4375,
2010-03-07, 00:03:04,VALID,920.329,VALID,0,VALID,97.5264,VALID,0,VALID,20.4049,VALID,161,VALID,0.530859,
2010-03-07, 00:04:04,VALID,920.356,VALID,0,VALID,97.4882,VALID,0,VALID,20.4049,VALID,161,VALID,0.651953,
2010-03-07, 00:05:04,VALID,920.383,VALID,0,VALID,97.534,VALID,0,VALID,20.3854,VALID,161,VALID,0.688672,
2010-03-07, 00:06:04,VALID,920.378,VALID,0,VALID,97.5416,VALID,0,VALID,20.4049,VALID,161,VALID,0.776563,
2010-03-07, 00:07:04,VALID,920.386,VALID,0,VALID,97.5187,VALID,0,VALID,20.4049,VALID,161,VALID,0.800391,
2010-03-07, 00:08:04,VALID,920.384,VALID,0,VALID,97.534,VALID,0,VALID,20.4049,VALID,161,VALID,0.454688,
2010-03-07, 00:09:04,VALID,920.343,VALID,0,VALID,97.5264,VALID,0,VALID,20.3838,VALID,161,VALID,0.730859,
2010-03-07, 00:10:04,VALID,920.34,VALID,0,VALID,97.534,VALID,0,VALID,20.3838,VALID,161,VALID,0.582812,
2010-03-07, 00:11:04,VALID,920.318,VALID,0,VALID,97.5187,VALID,0,VALID,20.4033,VALID,161,VALID,0.735547,
2010-03-07, 00:12:04,VALID,920.297,VALID,0,VALID,97.5264,VALID,0.107441,VALID,20.4228,VALID,161,VALID,0.710938,
2010-03-07, 00:13:04,VALID,920.259,VALID,0,VALID,97.5264,VALID,0,VALID,20.4228,VALID,161,VALID,0.773438,
2010-03-07, 00:14:04,VALID,920.228,VALID,0,VALID,97.5111,VALID,0.107441,VALID,20.4423,VALID,161,VALID,0.857422,
2010-03-07, 00:15:04,VALID,920.191,VALID,0,VALID,97.534,VALID,0,VALID,20.4634,VALID,161,VALID,0.646094,
2010-03-07, 00:16:04,VALID,920.167,VALID,0,VALID,97.5187,VALID,0.107441,VALID,20.4423,VALID,161,VALID,0.64375,
2010-03-07, 00:17:04,VALID,920.145,VALID,0,VALID,97.5111,VALID,0,VALID,20.4423,VALID,161,VALID,0.747656,
2010-03-07, 00:18:04,VALID,920.111,VALID,0,VALID,97.5264,VALID,0.107441,VALID,20.4228,VALID,161,VALID,0.444531,
2010-03-07, 00:19:04,VALID,920.084,VALID,0,VALID,97.5264,VALID,0,VALID,20.4033,VALID,161,VALID,0.521875,
2010-03-07, 00:20:04,VALID,920.055,VALID,0,VALID,97.5035,VALID,0,VALID,20.3838,VALID,161,VALID,0.516797,
2010-03-07, 00:21:04,VALID,920.047,VALID,0,VALID,97.5035,VALID,0.107441,VALID,20.3643,VALID,161,VALID,0.582031,
2010-03-07, 00:22:04,VALID,920.021,VALID,0,VALID,97.5111,VALID,0.107441,VALID,20.3854,VALID,161,VALID,0.957031,
2010-03-07, 00:23:04,VALID,920.026,VALID,0,VALID,97.4959,VALID,0.107441,VALID,20.3643,VALID,161,VALID,0.599219,
2010-03-07, 00:24:04,VALID,920.018,VALID,0,VALID,97.4959,VALID,0.107441,VALID,20.3253,VALID,161,VALID,0.619922,
2010-03-07, 00:25:04,VALID,919.979,VALID,0,VALID,97.5111,VALID,0,VALID,20.3269,VALID,161,VALID,0.797266,
2010-03-07, 00:26:04,VALID,919.991,VALID,0,VALID,97.4806,VALID,0.107441,VALID,20.3058,VALID,161,VALID,0.722656,
2010-03-07, 00:27:04,VALID,919.944,VALID,0,VALID,97.4959,VALID,0,VALID,20.3074,VALID,161,VALID,0.741797,
2010-03-07, 00:28:04,VALID,919.945,VALID,0,VALID,97.4806,VALID,0,VALID,20.2668,VALID,161,VALID,0.698828,
2010-03-07, 00:29:04,VALID,919.938,VALID,0,VALID,97.5035,VALID,0,VALID,20.2473,VALID,161,VALID,0.651172,
2010-03-07, 00:30:04,VALID,919.929,VALID,0,VALID,97.5111,VALID,0,VALID,20.2473,VALID,161,VALID,0.540234,
2010-03-07, 00:31:04,VALID,919.912,VALID,0,VALID,97.4959,VALID,0,VALID,20.2278,VALID,161,VALID,0.496484,
2010-03-07, 00:32:04,VALID,919.897,VALID,0,VALID,97.4654,VALID,0,VALID,20.2083,VALID,161,VALID,0.352344,
2010-03-07, 00:33:04,VALID,919.885,VALID,0,VALID,97.4806,VALID,0.107441,VALID,20.1888,VALID,161,VALID,0.441016,
2010-03-07, 00:34:04,VALID,919.846,VALID,0,VALID,97.473,VALID,0,VALID,20.1888,VALID,161,VALID,0.316797,
2010-03-07, 00:35:04,VALID,919.809,VALID,0,VALID,97.473,VALID,0,VALID,20.2083,VALID,161,VALID,0.361719,
2010-03-07, 00:36:04,VALID,919.766,VALID,0,VALID,97.473,VALID,0,VALID,20.1888,VALID,161,VALID,0.636719,
2010-03-07, 00:37:04,VALID,919.768,VALID,0,VALID,97.473,VALID,0,VALID,20.2098,VALID,161,VALID,0.400391,
2010-03-07, 00:38:04,VALID,919.727,VALID,0,VALID,97.5111,VALID,0,VALID,20.1888,VALID,161,VALID,0.767187,
2010-03-07, 00:39:04,VALID,919.704,VALID,0,VALID,97.4882,VALID,0,VALID,20.2098,VALID,161,VALID,0.867578,
2010-03-07, 00:40:04,VALID,919.679,VALID,0,VALID,97.5187,VALID,0,VALID,20.2098,VALID,161,VALID,0.837109,
2010-03-07, 00:41:04,VALID,919.642,VALID,0,VALID,97.4882,VALID,0,VALID,20.2098,VALID,125,VALID,0.716797,
2010-03-07, 00:42:04,VALID,919.626,VALID,0,VALID,97.4959,VALID,0,VALID,20.1498,VALID,125,VALID,0.847656,
2010-03-07, 00:43:04,VALID,919.62,VALID,0,VALID,97.4806,VALID,0,VALID,20.1498,VALID,125,VALID,0.994531,
2010-03-07, 00:44:04,VALID,919.576,VALID,0,VALID,97.5035,VALID,0,VALID,20.2098,VALID,125,VALID,1.01953,
2010-03-07, 00:45:04,VALID,919.551,VALID,0,VALID,97.5111,VALID,0,VALID,20.1498,VALID,125,VALID,0.885938,
2010-03-07, 00:46:04,VALID,919.561,VALID,0,VALID,97.4959,VALID,0,VALID,20.1303,VALID,125,VALID,1.11328,
2010-03-07, 00:47:04,VALID,919.546,VALID,0,VALID,97.4959,VALID,0,VALID,20.1513,VALID,125,VALID,1.1832,
2010-03-07, 00:48:04,VALID,919.526,VALID,0,VALID,97.5035,VALID,0,VALID,20.1318,VALID,125,VALID,0.992578,
2010-03-07, 00:49:04,VALID,919.543,VALID,0,VALID,97.5264,VALID,0,VALID,20.1513,VALID,125,VALID,0.942187,
2010-03-07, 00:50:04,VALID,919.546,VALID,0,VALID,97.4882,VALID,0.107441,VALID,20.1513,VALID,125,VALID,0.708594,
2010-03-07, 00:51:04,VALID,919.537,VALID,0,VALID,97.4959,VALID,0.107441,VALID,20.1108,VALID,125,VALID,0.471484,
2010-03-07, 00:52:04,VALID,919.531,VALID,0,VALID,97.4959,VALID,0,VALID,20.1108,VALID,125,VALID,0.594531,
2010-03-07, 00:53:04,VALID,919.505,VALID,0,VALID,97.4959,VALID,0,VALID,20.0913,VALID,125,VALID,0.79375,
2010-03-07, 00:54:04,VALID,919.499,VALID,0,VALID,97.5187,VALID,0,VALID,20.0928,VALID,125,VALID,0.761328,
2010-03-07, 00:55:04,VALID,919.49,VALID,0,VALID,97.5111,VALID,0.107441,VALID,20.0928,VALID,125,VALID,0.566016,
2010-03-07, 00:56:04,VALID,919.465,VALID,0,VALID,97.4806,VALID,0.107441,VALID,20.0928,VALID,125,VALID,0.639453,
2010-03-07, 00:57:04,VALID,919.465,VALID,0,VALID,97.5111,VALID,0.107441,VALID,20.0913,VALID,125,VALID,0.374609,
2010-03-07, 00:58:04,VALID,919.471,VALID,0,VALID,97.5264,VALID,0.107441,VALID,20.1318,VALID,125,VALID,0.407422,
2010-03-07, 00:59:04,VALID,919.423,VALID,0,VALID,97.5111,VALID,0,VALID,20.1123,VALID,125,VALID,0.162891,
2010-03-07, 01:00:04,VALID,919.447,VALID,0,VALID,97.4806,VALID,0,VALID,20.0913,VALID,125,VALID,0.263672,
2010-03-07, 01:01:04,VALID,919.446,VALID,0,VALID,97.5035,VALID,0,VALID,20.0718,VALID,125,VALID,0.0433594,
2010-03-07, 01:02:04,VALID,919.444,VALID,0,VALID,97.473,VALID,0,VALID,20.0538,VALID,125,VALID,0.249219,
2010-03-07, 01:03:04,VALID,919.479,VALID,0,VALID,97.4959,VALID,0,VALID,20.0538,VALID,125,VALID,0.195703,
2010-03-07, 01:04:04,VALID,919.466,VALID,0,VALID,97.4959,VALID,0,VALID,20.0343,VALID,125,VALID,0.224219,
2010-03-07, 01:05:04,VALID,919.459,VALID,0,VALID,97.4882,VALID,0,VALID,20.0133,VALID,125,VALID,0.512891,
2010-03-07, 01:06:04,VALID,919.486,VALID,0,VALID,97.4806,VALID,0,VALID,20.0133,VALID,125,VALID,0.297656,
2010-03-07, 01:07:04,VALID,919.466,VALID,0,VALID,97.4882,VALID,0,VALID,19.9548,VALID,125,VALID,0.380078,
2010-03-07, 01:08:04,VALID,919.492,VALID,0,VALID,97.4882,VALID,0,VALID,19.9743,VALID,125,VALID,0.703516,
2010-03-07, 01:09:04,VALID,919.489,VALID,0,VALID,97.4882,VALID,0,VALID,19.9563,VALID,125,VALID,0.551172,
2010-03-07, 01:10:04,VALID,919.513,VALID,0,VALID,97.4882,VALID,0.107441,VALID,19.8963,VALID,125,VALID,0.708594,
2010-03-07, 01:11:04,VALID,919.53,VALID,0,VALID,97.4959,VALID,0,VALID,19.8978,VALID,125,VALID,0.526563,
2010-03-07, 01:12:04,VALID,919.525,VALID,0.2,VALID,97.5264,VALID,0,VALID,19.9158,VALID,125,VALID,0.421484,
2010-03-07, 01:13:04,VALID,919.502,VALID,0,VALID,97.534,VALID,0,VALID,20.0343,VALID,125,VALID,0.753906,
2010-03-07, 01:14:04,VALID,919.446,VALID,0,VALID,97.5264,VALID,0,VALID,20.0928,VALID,125,VALID,0.541797,
2010-03-07, 01:15:04,VALID,919.483,VALID,0,VALID,97.5187,VALID,0,VALID,20.0133,VALID,125,VALID,0.485156,
2010-03-07, 01:16:04,VALID,919.453,VALID,0,VALID,97.5035,VALID,0,VALID,20.1123,VALID,125,VALID,0.773047,
2010-03-07, 01:17:04,VALID,919.44,VALID,0,VALID,97.5187,VALID,0,VALID,20.1498,VALID,125,VALID,0.626172,
2010-03-07, 01:18:04,VALID,919.439,VALID,0,VALID,97.5111,VALID,0,VALID,20.1903,VALID,125,VALID,0.309766,
2010-03-07, 01:19:04,VALID,919.421,VALID,0,VALID,97.5111,VALID,0.107441,VALID,20.2098,VALID,125,VALID,0,
2010-03-07, 01:20:04,VALID,919.368,VALID,0,VALID,97.5264,VALID,0,VALID,20.1498,VALID,125,VALID,0,
2010-03-07, 01:21:04,VALID,919.381,VALID,0,VALID,97.5187,VALID,0,VALID,20.1123,VALID,125,VALID,0,
2010-03-07, 01:22:04,VALID,919.365,VALID,0,VALID,97.4959,VALID,0,VALID,20.0928,VALID,125,VALID,0,
2010-03-07, 01:23:04,VALID,919.323,VALID,0,VALID,97.4959,VALID,0,VALID,20.0928,VALID,125,VALID,0,
2010-03-07, 01:24:04,VALID,919.329,VALID,0,VALID,97.5035,VALID,0,VALID,20.0718,VALID,125,VALID,0,
2010-03-07, 01:25:04,VALID,919.365,VALID,0,VALID,97.4882,VALID,0,VALID,20.1123,VALID,125,VALID,0,
2010-03-07, 01:26:04,VALID,919.329,VALID,0,VALID,97.4882,VALID,0,VALID,20.1513,VALID,125,VALID,0,
2010-03-07, 01:27:04,VALID,919.338,VALID,0,VALID,97.4959,VALID,0.107441,VALID,20.1498,VALID,125,VALID,0,
2010-03-07, 01:28:04,VALID,919.3,VALID,0,VALID,97.5035,VALID,0,VALID,20.1693,VALID,125,VALID,0,
2010-03-07, 01:29:04,VALID,919.288,VALID,0,VALID,97.5035,VALID,0,VALID,20.1888,VALID,125,VALID,0.343359,
2010-03-07, 01:30:04,VALID,919.256,VALID,0,VALID,97.4959,VALID,0,VALID,20.2489,VALID,125,VALID,0.505078,
2010-03-07, 01:31:04,VALID,919.245,VALID,0,VALID,97.4959,VALID,0,VALID,20.2083,VALID,125,VALID,0.705859,
2010-03-07, 01:32:04,VALID,919.239,VALID,0,VALID,97.5035,VALID,0,VALID,20.1888,VALID,125,VALID,0.651563,
2010-03-07, 01:33:04,VALID,919.254,VALID,0,VALID,97.4882,VALID,0,VALID,20.2489,VALID,125,VALID,0.972266,
2010-03-07, 01:34:04,VALID,919.267,VALID,0,VALID,97.4882,VALID,0,VALID,20.2489,VALID,125,VALID,0.753125,
2010-03-07, 01:35:04,VALID,919.255,VALID,0,VALID,97.4882,VALID,0,VALID,20.2278,VALID,125,VALID,0.669922,
2010-03-07, 01:36:04,VALID,919.255,VALID,0,VALID,97.5187,VALID,0,VALID,20.2489,VALID,125,VALID,0.663281,
2010-03-07, 01:37:04,VALID,919.244,VALID,0,VALID,97.4882,VALID,0,VALID,20.2083,VALID,125,VALID,0.884375,
2010-03-07, 01:38:04,VALID,919.272,VALID,0,VALID,97.4959,VALID,0,VALID,20.2278,VALID,125,VALID,0.914063,
2010-03-07, 01:39:04,VALID,919.234,VALID,0,VALID,97.473,VALID,0.107441,VALID,20.2083,VALID,125,VALID,1.30898,
2010-03-07, 01:40:04,VALID,919.223,VALID,0,VALID,97.4654,VALID,0,VALID,20.2293,VALID,125,VALID,1.08438,
2010-03-07, 01:41:04,VALID,919.218,VALID,0,VALID,97.4806,VALID,0,VALID,20.2278,VALID,125,VALID,0.736719,
2010-03-07, 01:42:04,VALID,919.176,VALID,0,VALID,97.4577,VALID,0,VALID,20.2489,VALID,125,VALID,0.6,
2010-03-07, 01:43:04,VALID,919.15,VALID,0,VALID,97.5035,VALID,0,VALID,20.2278,VALID,125,VALID,0.630469,
2010-03-07, 01:44:04,VALID,919.17,VALID,0,VALID,97.473,VALID,0,VALID,20.2489,VALID,126,VALID,0.799609,
2010-03-07, 01:45:04,VALID,919.177,VALID,0,VALID,97.4806,VALID,0,VALID,20.2489,VALID,138,VALID,1.12383,
2010-03-07, 01:46:04,VALID,919.135,VALID,0,VALID,97.4882,VALID,0,VALID,20.2293,VALID,138,VALID,0.606641,
2010-03-07, 01:47:04,VALID,919.161,VALID,0,VALID,97.4806,VALID,0,VALID,20.2083,VALID,138,VALID,0.871094,
2010-03-07, 01:48:04,VALID,919.128,VALID,0,VALID,97.4806,VALID,0,VALID,20.2083,VALID,138,VALID,0.846875,
2010-03-07, 01:49:04,VALID,919.179,VALID,0,VALID,97.4882,VALID,0,VALID,20.2098,VALID,138,VALID,0.681641,
2010-03-07, 01:50:04,VALID,919.125,VALID,0,VALID,97.4882,VALID,0,VALID,20.1888,VALID,138,VALID,0.825391,
2010-03-07, 01:51:04,VALID,919.11,VALID,0,VALID,97.4959,VALID,0,VALID,20.2083,VALID,138,VALID,1.03711,
2010-03-07, 01:52:04,VALID,919.108,VALID,0,VALID,97.4959,VALID,0,VALID,20.2278,VALID,138,VALID,0.801562,
2010-03-07, 01:53:04,VALID,919.099,VALID,0,VALID,97.4806,VALID,0,VALID,20.2684,VALID,138,VALID,0.776563,
2010-03-07, 01:54:04,VALID,919.086,VALID,0,VALID,97.4882,VALID,0,VALID,20.2684,VALID,138,VALID,0.637109,
2010-03-07, 01:55:04,VALID,919.045,VALID,0,VALID,97.4959,VALID,0,VALID,20.2278,VALID,138,VALID,0.809375,
2010-03-07, 01:56:04,VALID,919.039,VALID,0,VALID,97.4959,VALID,0,VALID,20.2278,VALID,138,VALID,0.469141,
2010-03-07, 01:57:04,VALID,919.033,VALID,0,VALID,97.4959,VALID,0,VALID,20.2083,VALID,138,VALID,0.647656,
2010-03-07, 01:58:04,VALID,919.022,VALID,0,VALID,97.4959,VALID,0,VALID,20.2293,VALID,138,VALID,0.969531,
2010-03-07, 01:59:04,VALID,918.99,VALID,0,VALID,97.5035,VALID,0.107441,VALID,20.1693,VALID,138,VALID,0.86875,
2010-03-07, 02:00:04,VALID,918.958,VALID,0,VALID,97.5035,VALID,0,VALID,20.1693,VALID,138,VALID,1.11094,
2010-03-07, 02:01:04,VALID,918.947,VALID,0,VALID,97.5035,VALID,0,VALID,20.1693,VALID,138,VALID,1.13555,
2010-03-07, 02:02:04,VALID,918.966,VALID,0,VALID,97.4959,VALID,0,VALID,20.1498,VALID,138,VALID,0.981641,
2010-03-07, 02:03:04,VALID,918.946,VALID,0,VALID,97.5035,VALID,0,VALID,20.1708,VALID,138,VALID,0.734766,
2010-03-07, 02:04:04,VALID,918.924,VALID,0,VALID,97.5035,VALID,0,VALID,20.1693,VALID,138,VALID,0.759766,
2010-03-07, 02:05:04,VALID,918.921,VALID,0,VALID,97.5187,VALID,0,VALID,20.1498,VALID,138,VALID,0.598828,
2010-03-07, 02:06:04,VALID,918.951,VALID,0,VALID,97.5035,VALID,0.107441,VALID,20.1693,VALID,138,VALID,0.769922,
2010-03-07, 02:07:04,VALID,918.904,VALID,0,VALID,97.5264,VALID,0,VALID,20.1903,VALID,138,VALID,0.765625,
2010-03-07, 02:08:04,VALID,918.917,VALID,0,VALID,97.5111,VALID,0,VALID,20.1888,VALID,138,VALID,0.498828,
2010-03-07, 02:09:04,VALID,918.914,VALID,0,VALID,97.5111,VALID,0,VALID,20.1888,VALID,138,VALID,0.626562,
2010-03-07, 02:10:04,VALID,918.87,VALID,0,VALID,97.5035,VALID,0,VALID,20.1888,VALID,138,VALID,0.891797,
2010-03-07, 02:11:04,VALID,918.86,VALID,0,VALID,97.5111,VALID,0,VALID,20.2083,VALID,138,VALID,0.757813,
2010-03-07, 02:12:04,VALID,918.848,VALID,0,VALID,97.5035,VALID,0,VALID,20.2293,VALID,138,VALID,0.433594,
2010-03-07, 02:13:04,VALID,918.82,VALID,0,VALID,97.4882,VALID,0,VALID,20.2083,VALID,138,VALID,0.476172,
2010-03-07, 02:14:04,VALID,918.819,VALID,0,VALID,97.5187,VALID,0,VALID,20.2083,VALID,138,VALID,0.652344,
2010-03-07, 02:15:04,VALID,918.808,VALID,0,VALID,97.4806,VALID,0,VALID,20.2293,VALID,138,VALID,0.48125,
2010-03-07, 02:16:04,VALID,918.752,VALID,0,VALID,97.5111,VALID,0,VALID,20.2083,VALID,138,VALID,0.0921875,
2010-03-07, 02:17:04,VALID,918.747,VALID,0,VALID,97.5035,VALID,0,VALID,20.2083,VALID,138,VALID,0.096875,
2010-03-07, 02:18:04,VALID,918.744,VALID,0,VALID,97.4654,VALID,0,VALID,20.2098,VALID,138,VALID,0,
2010-03-07, 02:19:04,VALID,918.726,VALID,0,VALID,97.5035,VALID,0,VALID,20.2098,VALID,138,VALID,0.198047,
2010-03-07, 02:20:04,VALID,918.734,VALID,0,VALID,97.4959,VALID,0.107441,VALID,20.1888,VALID,138,VALID,0,
2010-03-07, 02:21:04,VALID,918.711,VALID,0,VALID,97.5187,VALID,0.107441,VALID,20.1693,VALID,138,VALID,0,
2010-03-07, 02:22:04,VALID,918.663,VALID,0,VALID,97.4882,VALID,0,VALID,20.1693,VALID,138,VALID,0,
2010-03-07, 02:23:04,VALID,918.662,VALID,0,VALID,97.5035,VALID,0,VALID,20.1888,VALID,138,VALID,0,
2010-03-07, 02:24:04,VALID,918.651,VALID,0,VALID,97.4882,VALID,0.107441,VALID,20.1693,VALID,138,VALID,0,
2010-03-07, 02:25:04,VALID,918.671,VALID,0,VALID,97.4959,VALID,0.107441,VALID,20.1888,VALID,138,VALID,0,
2010-03-07, 02:26:04,VALID,918.662,VALID,0,VALID,97.5035,VALID,0,VALID,20.1693,VALID,138,VALID,0.585547,
2010-03-07, 02:27:04,VALID,918.703,VALID,0,VALID,97.4806,VALID,0,VALID,20.1498,VALID,138,VALID,0.416797,
2010-03-07, 02:28:04,VALID,918.67,VALID,0,VALID,97.4806,VALID,0.107441,VALID,20.1303,VALID,138,VALID,0.717188,
2010-03-07, 02:29:04,VALID,918.697,VALID,0,VALID,97.4806,VALID,0.107441,VALID,20.1108,VALID,138,VALID,0.589844,
2010-03-07, 02:30:04,VALID,918.652,VALID,0,VALID,97.473,VALID,0.107441,VALID,20.0928,VALID,138,VALID,0.58125,
2010-03-07, 02:31:04,VALID,918.682,VALID,0,VALID,97.4806,VALID,0,VALID,20.0928,VALID,138,VALID,0.4,
2010-03-07, 02:32:04,VALID,918.657,VALID,0,VALID,97.4959,VALID,0.107441,VALID,20.1123,VALID,138,VALID,0.472656,
2010-03-07, 02:33:04,VALID,918.681,VALID,0,VALID,97.4882,VALID,0,VALID,20.0718,VALID,138,VALID,0.388672,
2010-03-07, 02:34:04,VALID,918.65,VALID,0,VALID,97.4959,VALID,0.107441,VALID,20.1108,VALID,138,VALID,0.155859,
2010-03-07, 02:35:04,VALID,918.613,VALID,0,VALID,97.4806,VALID,0,VALID,20.0928,VALID,138,VALID,0,
2010-03-07, 02:36:04,VALID,918.617,VALID,0,VALID,97.473,VALID,0,VALID,20.0913,VALID,138,VALID,0,
2010-03-07, 02:37:04,VALID,918.584,VALID,0,VALID,97.4959,VALID,0,VALID,20.0928,VALID,138,VALID,0,
2010-03-07, 02:38:04,VALID,918.566,VALID,0,VALID,97.5035,VALID,0,VALID,20.1123,VALID,138,VALID,0,
2010-03-07, 02:39:04,VALID,918.559,VALID,0,VALID,97.4882,VALID,0,VALID,20.1318,VALID,138,VALID,0.757813,
2010-03-07, 02:40:04,VALID,918.522,VALID,0,VALID,97.4882,VALID,0.107441,VALID,20.0913,VALID,138,VALID,0.962891,
2010-03-07, 02:41:04,VALID,918.524,VALID,0,VALID,97.4806,VALID,0,VALID,20.1318,VALID,138,VALID,1.13008,
2010-03-07, 02:42:04,VALID,918.473,VALID,0,VALID,97.4882,VALID,0,VALID,20.1303,VALID,138,VALID,0.920313,
2010-03-07, 02:43:04,VALID,918.465,VALID,0,VALID,97.4882,VALID,0,VALID,20.1708,VALID,138,VALID,1.10586,
2010-03-07, 02:44:04,VALID,918.426,VALID,0,VALID,97.4806,VALID,0,VALID,20.1513,VALID,138,VALID,1.14961,
2010-03-07, 02:45:04,VALID,918.442,VALID,0,VALID,97.4654,VALID,0.107441,VALID,20.1693,VALID,138,VALID,1.05664,
2010-03-07, 02:46:04,VALID,918.462,VALID,0,VALID,97.4577,VALID,0,VALID,20.1708,VALID,138,VALID,0.720703,
2010-03-07, 02:47:04,VALID,918.422,VALID,0,VALID,97.4577,VALID,0.107441,VALID,20.1693,VALID,138,VALID,0.782031,
2010-03-07, 02:48:04,VALID,918.449,VALID,0,VALID,97.4425,VALID,0.107441,VALID,20.1903,VALID,138,VALID,0.810156,
2010-03-07, 02:49:04,VALID,918.46,VALID,0,VALID,97.4273,VALID,0,VALID,20.1708,VALID,138,VALID,0.763281,
2010-03-07, 02:50:04,VALID,918.444,VALID,0,VALID,97.4044,VALID,0.107441,VALID,20.1303,VALID,138,VALID,0.798437,
2010-03-07, 02:51:04,VALID,918.43,VALID,0,VALID,97.412,VALID,0.107441,VALID,20.1498,VALID,138,VALID,1.01094,
2010-03-07, 02:52:04,VALID,918.42,VALID,0,VALID,97.3968,VALID,0.107441,VALID,20.1888,VALID,138,VALID,0.487891,
2010-03-07, 02:53:04,VALID,918.425,VALID,0,VALID,97.3891,VALID,0.107441,VALID,20.1888,VALID,138,VALID,0.996484,
2010-03-07, 02:54:04,VALID,918.395,VALID,0,VALID,97.3739,VALID,0,VALID,20.1693,VALID,138,VALID,0.789453,
2010-03-07, 02:55:04,VALID,918.413,VALID,0,VALID,97.351,VALID,0,VALID,20.1903,VALID,38,VALID,0.749219,
2010-03-07, 02:56:04,VALID,918.436,VALID,0,VALID,97.2824,VALID,0,VALID,20.1708,VALID,38,VALID,0.800781,
2010-03-07, 02:57:04,VALID,918.401,VALID,0,VALID,97.2595,VALID,0.107441,VALID,20.1498,VALID,38,VALID,0.976172,
2010-03-07, 02:58:04,VALID,918.404,VALID,0,VALID,97.2062,VALID,0,VALID,20.1513,VALID,37,VALID,1.07109,
2010-03-07, 02:59:04,VALID,918.385,VALID,0,VALID,97.2595,VALID,0,VALID,20.1303,VALID,37,VALID,1.16211,
2010-03-07, 03:00:04,VALID,918.364,VALID,0,VALID,97.229,VALID,0,VALID,20.1108,VALID,38,VALID,0.886719,
2010-03-07, 03:01:04,VALID,918.369,VALID,0,VALID,97.229,VALID,0,VALID,20.1108,VALID,38,VALID,0.816797,
2010-03-07, 03:02:04,VALID,918.328,VALID,0,VALID,97.2519,VALID,0,VALID,20.1318,VALID,38,VALID,0.524219,
2010-03-07, 03:03:04,VALID,918.32,VALID,0,VALID,97.2214,VALID,0.107441,VALID,20.1303,VALID,38,VALID,0.708984,
2010-03-07, 03:04:04,VALID,918.321,VALID,0,VALID,97.1986,VALID,0,VALID,20.1318,VALID,38,VALID,0.69375,
2010-03-07, 03:05:04,VALID,918.29,VALID,0,VALID,97.1986,VALID,0,VALID,20.1303,VALID,38,VALID,0.65,
2010-03-07, 03:06:04,VALID,918.269,VALID,0,VALID,97.1833,VALID,0.107441,VALID,20.1318,VALID,38,VALID,0.692578,
2010-03-07, 03:07:04,VALID,918.257,VALID,0,VALID,97.1604,VALID,0,VALID,20.1108,VALID,38,VALID,0.771875,
2010-03-07, 03:08:04,VALID,918.223,VALID,0,VALID,97.1376,VALID,0,VALID,20.1108,VALID,38,VALID,0.812891,
2010-03-07, 03:09:05,VALID,918.242,VALID,0,VALID,97.1299,VALID,0,VALID,20.1123,VALID,38,VALID,0.771875,
2010-03-07, 03:10:05,VALID,918.197,VALID,0,VALID,97.1223,VALID,0.107441,VALID,20.0913,VALID,37,VALID,0.808984,
2010-03-07, 03:11:05,VALID,918.163,VALID,0,VALID,97.1147,VALID,0,VALID,20.0913,VALID,38,VALID,0.7375,
2010-03-07, 03:12:05,VALID,918.168,VALID,0,VALID,97.1528,VALID,0,VALID,20.1108,VALID,38,VALID,0.295703,
2010-03-07, 03:13:05,VALID,918.193,VALID,0,VALID,97.1299,VALID,0,VALID,20.0718,VALID,38,VALID,0.433984,
2010-03-07, 03:14:05,VALID,918.184,VALID,0,VALID,97.1604,VALID,0.107441,VALID,20.0718,VALID,38,VALID,0.491016,
2010-03-07, 03:15:05,VALID,918.209,VALID,0,VALID,97.1528,VALID,0.107441,VALID,20.0718,VALID,38,VALID,0.177734,
2010-03-07, 03:16:05,VALID,918.221,VALID,0,VALID,97.1986,VALID,0,VALID,20.0928,VALID,38,VALID,0.578906,
2010-03-07, 03:17:05,VALID,918.212,VALID,0,VALID,97.2138,VALID,0,VALID,20.0718,VALID,38,VALID,0.672656,
2010-03-07, 03:18:05,VALID,918.183,VALID,0,VALID,97.2062,VALID,0,VALID,20.0733,VALID,38,VALID,0.520312,
2010-03-07, 03:19:05,VALID,918.203,VALID,0,VALID,97.2214,VALID,0.107441,VALID,20.0538,VALID,38,VALID,0.412891,
2010-03-07, 03:20:05,VALID,918.211,VALID,0,VALID,97.229,VALID,0,VALID,20.0538,VALID,38,VALID,0.264844,
2010-03-07, 03:21:05,VALID,918.151,VALID,0,VALID,97.2138,VALID,0,VALID,20.0133,VALID,37,VALID,0,
2010-03-07, 03:22:05,VALID,918.168,VALID,0,VALID,97.2367,VALID,0.107441,VALID,20.0133,VALID,37,VALID,0,
2010-03-07, 03:23:05,VALID,918.121,VALID,0,VALID,97.2138,VALID,0.214882,VALID,19.9938,VALID,38,VALID,0,
2010-03-07, 03:24:05,VALID,918.163,VALID,0,VALID,97.2138,VALID,0.107441,VALID,19.9353,VALID,38,VALID,0.28125,
2010-03-07, 03:25:05,VALID,918.147,VALID,0,VALID,97.229,VALID,0,VALID,19.9563,VALID,37,VALID,0.358984,
2010-03-07, 03:26:05,VALID,918.159,VALID,0,VALID,97.2519,VALID,0,VALID,19.9368,VALID,38,VALID,0.297266,
2010-03-07, 03:27:05,VALID,918.13,VALID,0,VALID,97.3129,VALID,0.107441,VALID,19.9158,VALID,38,VALID,0.38125,
2010-03-07, 03:28:05,VALID,918.146,VALID,0,VALID,97.3281,VALID,0,VALID,19.9158,VALID,37,VALID,0.434766,
2010-03-07, 03:29:05,VALID,918.184,VALID,0,VALID,97.3281,VALID,0.107441,VALID,19.9353,VALID,38,VALID,0.558203,
2010-03-07, 03:30:05,VALID,918.169,VALID,0,VALID,97.2977,VALID,0.107441,VALID,19.9548,VALID,38,VALID,0.665234,
2010-03-07, 03:31:05,VALID,918.177,VALID,0,VALID,97.3205,VALID,0.107441,VALID,19.9548,VALID,38,VALID,0.688281,
2010-03-07, 03:32:05,VALID,918.218,VALID,0,VALID,97.3129,VALID,0,VALID,19.9953,VALID,38,VALID,0.397266,
2010-03-07, 03:33:05,VALID,918.178,VALID,0,VALID,97.2519,VALID,0.107441,VALID,19.9743,VALID,38,VALID,0.751953,
2010-03-07, 03:34:05,VALID,918.21,VALID,0,VALID,97.2367,VALID,0,VALID,19.9758,VALID,38,VALID,0.593359,
2010-03-07, 03:35:05,VALID,918.238,VALID,0,VALID,97.2138,VALID,0,VALID,20.0148,VALID,38,VALID,0.433984,
2010-03-07, 03:36:05,VALID,918.163,VALID,0,VALID,97.2214,VALID,0,VALID,20.0148,VALID,38,VALID,0.311328,
2010-03-07, 03:37:05,VALID,918.119,VALID,0,VALID,97.1757,VALID,0.107441,VALID,20.0148,VALID,38,VALID,0.497266,
2010-03-07, 03:38:05,VALID,918.094,VALID,0,VALID,97.1757,VALID,0,VALID,20.0148,VALID,38,VALID,0.301953,
2010-03-07, 03:39:05,VALID,918.111,VALID,0,VALID,97.1452,VALID,0,VALID,20.0148,VALID,37,VALID,0.318359,
2010-03-07, 03:40:05,VALID,918.098,VALID,0,VALID,97.1376,VALID,0.107441,VALID,20.0133,VALID,38,VALID,0.430078,
2010-03-07, 03:41:05,VALID,918.124,VALID,0,VALID,97.0766,VALID,0,VALID,20.0343,VALID,37,VALID,0.975781,
2010-03-07, 03:42:05,VALID,918.114,VALID,0,VALID,97.008,VALID,0,VALID,20.0133,VALID,38,VALID,0.914844,